[[{"header":{"parameterUnit":"m.s-1","parameterCategory":1,"la1":30.2991,"la2":30.254,"lo1":-89.0895,"lo2":-89.0444,"dy":0.0017,"dx":0.0017,"nx":28,"ny":28,"refTime":"2024-05-11T09:00:00:Z","depth":0,"parameterNumber":2,"parameterNumberName":"U-component_of_WINDS"},"data":[0,0,0,0,0,0,0,0,0,0,0,0,0,0,0,0,0,0,0,0,0,0,0,0,0,0,0,0,0,0,0,0,0,0,0,0,0,0,0,0,0,0,0,0,0,0,0,0,0,0,0,0,0,0,0,0,0,0,-0.5413,-0.5413,0,-0.5412,-0.5412,-0.5412,-0.5384,-0.5383,-0.5383,-0.5382,-0.5381,-0.5382,-0.5383,0,0,0,0,0,0,0,0,0,0,0,0,0,-0.5393,-0.5393,-0.5413,-0.5413,-0.5413,-0.5412,-0.5412,-0.5412,-0.5384,-0.5383,-0.5383,-0.5382,-0.5381,-0.5382,-0.5383,0,0,0,0,0,0,0,0,0,0,0,0,0,-0.5398,-0.5394,-0.5413,-0.5399,-0.5398,-0.5412,-0.5412,-0.5412,-0.5384,-0.5383,-0.5382,-0.5381,-0.5381,-0.5382,-0.5383,-0.541,0,0,-0.5386,-0.5386,0,0,0,0,0,0,0,0,-0.5397,-0.5398,-0.5401,-0.54,-0.5399,-0.5397,-0.5404,-0.5411,-0.5385,-0.539,-0.5382,-0.5381,-0.5387,-0.5388,-0.539,-0.541,-0.541,-0.5386,-0.5386,-0.5387,-0.5387,0,0,0,0,0,0,0,-0.5397,-0.5398,-0.5413,-0.5402,-0.54,-0.5393,-0.5393,-0.5405,-0.5395,-0.5389,-0.5387,-0.5387,-0.5387,-0.5389,-0.539,-0.541,-0.5386,-0.5387,-0.5387,-0.5387,-0.545,-0.5451,0,0,0,0,0,0,-0.5399,-0.5398,-0.5413,-0.5413,-0.5396,-0.5395,-0.5394,-0.5399,-0.5394,-0.5393,-0.5388,-0.5386,-0.5388,-0.5389,-0.5389,-0.542,-0.5387,-0.5388,-0.5388,-0.5449,-0.5451,-0.5452,0,0,0,0,0,0,-0.5398,-0.54,-0.5413,-0.5405,-0.5406,-0.5396,-0.5402,-0.5399,-0.5402,-0.5394,-0.5392,-0.5393,-0.5387,-0.5388,-0.5405,-0.542,-0.5388,-0.5389,-0.5448,-0.545,-0.5451,-0.5483,0,0,0,0,0,0,-0.5398,-0.54,-0.5411,-0.5405,-0.5406,-0.5428,-0.5403,-0.54,-0.5403,-0.54,-0.5397,-0.5396,-0.5386,-0.5403,-0.5405,-0.5421,-0.539,-0.5446,-0.5449,-0.5451,-0.548,-0.5485,-0.5489,0,0,0,0,0,-0.5397,-0.542,-0.5411,-0.5413,-0.5419,-0.5429,-0.543,-0.5418,-0.5405,-0.5415,-0.5409,-0.5396,-0.5418,-0.5405,-0.5407,-0.5423,-0.5445,-0.5448,-0.545,-0.5478,-0.5484,-0.5489,0,0,0,0,0,0,-0.5428,-0.5419,-0.5409,-0.5431,-0.5431,-0.5424,-0.5437,-0.5425,-0.5429,-0.5427,-0.5412,-0.5412,-0.543,-0.5428,-0.5414,-0.5448,-0.5429,-0.5432,-0.5449,-0.5455,-0.546,-0.546,-0.539,0,0,0,0,0,-0.5437,-0.5446,-0.5437,-0.5457,-0.5458,-0.5447,-0.5451,-0.5442,-0.5442,-0.5442,-0.5438,-0.5438,-0.5445,-0.545,-0.5455,-0.5479,-0.5478,-0.5491,-0.5496,-0.5499,-0.5503,-0.5514,-0.552,-0.546,-0.546,-0.546,0,0,-0.5456,-0.5452,-0.5459,-0.5463,-0.5462,-0.5471,-0.5448,-0.5459,-0.5465,-0.5444,-0.5459,-0.5456,-0.5455,-0.5475,-0.5483,-0.5474,-0.5519,-0.5503,-0.5506,-0.5507,-0.5518,-0.5523,-0.5528,-0.5462,-0.5461,-0.5461,0,0,-0.5496,-0.5494,-0.551,-0.5509,-0.5508,-0.55,-0.5504,-0.5499,-0.5496,-0.5511,-0.5494,-0.5502,-0.5514,-0.5514,-0.5516,-0.5554,-0.5542,-0.5556,-0.5581,-0.5592,-0.5597,-0.5601,-0.5615,-0.562,-0.5559,-0.5559,-0.5559,0,-0.5521,-0.5534,-0.552,-0.5532,-0.5534,-0.5514,-0.553,-0.553,-0.553,-0.5532,-0.5521,-0.5535,-0.5533,-0.5553,-0.5562,-0.5564,-0.5568,-0.5557,-0.5598,-0.5602,-0.5605,-0.5618,-0.5623,-0.5561,-0.5561,-0.5561,-0.556,0,-0.5564,-0.5573,-0.5586,-0.5587,-0.559,-0.5604,-0.5592,-0.5597,-0.5588,-0.5581,-0.5596,-0.5593,-0.5598,-0.5601,-0.5592,-0.5619,-0.5613,-0.56,-0.558,-0.5613,-0.5625,-0.563,-0.5564,-0.5563,-0.5562,-0.5562,0,0,-0.5625,-0.5616,-0.5621,-0.5621,-0.5616,-0.5623,-0.5636,-0.564,-0.5645,-0.5645,-0.5655,-0.5665,-0.5653,-0.5654,-0.5645,-0.5655,-0.5685,-0.564,-0.564,-0.5649,-0.5715,-0.5725,-0.5731,-0.5677,-0.5677,-0.5678,-0.5715,0,-0.5663,-0.5684,-0.5672,-0.5695,-0.5703,-0.5683,-0.5694,-0.5692,-0.5686,-0.5692,-0.5686,-0.5693,-0.5676,-0.5677,-0.5686,-0.568,-0.5698,-0.5677,-0.5686,-0.5687,-0.5688,-0.5737,-0.5749,-0.5784,-0.5719,-0.572,-0.5721,0,-0.5712,-0.5714,-0.5737,-0.5731,-0.5734,-0.5744,-0.5746,-0.5752,-0.5749,-0.5744,-0.5745,-0.5733,-0.5745,-0.5725,-0.574,-0.5726,-0.5729,-0.5726,-0.5727,-0.5728,-0.5706,-0.574,-0.5795,-0.58,-0.5728,-0.5727,-0.5727,0,-0.5754,-0.5762,-0.5777,-0.5778,-0.577,-0.5778,-0.5775,-0.5771,-0.5774,-0.5776,-0.5777,-0.5781,-0.5782,-0.5785,-0.5774,-0.576,-0.5791,-0.577,-0.5787,-0.5787,-0.5795,-0.5795,-0.5851,-0.5796,-0.5796,-0.5796,-0.5796,0,-0.5799,-0.5815,-0.5796,-0.5806,-0.5822,-0.5807,-0.5823,-0.5818,-0.5815,-0.5823,-0.5806,-0.5813,-0.5797,-0.5804,-0.5795,-0.5809,-0.581,-0.5806,-0.5804,-0.5808,-0.5809,-0.581,-0.5808,-0.5797,-0.5797,-0.5797,-0.5797,0,-0.585,-0.5838,-0.5853,-0.5844,-0.5842,-0.5855,-0.5847,-0.5855,-0.5848,-0.5858,-0.5859,-0.5847,-0.5854,-0.5842,-0.5847,-0.5841,-0.5861,-0.5854,-0.5862,-0.586,-0.5878,-0.5877,-0.5938,-0.5945,-0.5885,-0.5885,-0.5886,0,-0.588,-0.5891,-0.5883,-0.5887,-0.5885,-0.5891,-0.5893,-0.5878,-0.5882,-0.5879,-0.5887,-0.5892,-0.5895,-0.5905,-0.5897,-0.5901,-0.5894,-0.5916,-0.5895,-0.5899,-0.5895,-0.5895,-0.5896,-0.592,-0.5921,-0.5922,-0.5922,0,-0.5934,-0.5928,-0.5932,-0.5933,-0.5936,-0.5937,-0.5937,-0.5941,-0.5924,-0.5929,-0.5935,-0.5937,-0.5941,-0.5946,-0.5947,-0.5944,-0.5931,-0.5928,-0.5933,-0.5938,-0.5942,-0.594,-0.5874,-0.5927,-0.5927,-0.5926,-0.5926,-0.5926,-0.5976,-0.5985,-0.598,-0.5985,-0.5982,-0.5982,-0.5989,-0.5981,-0.5986,-0.5988,-0.5978,-0.5986,-0.5982,-0.5982,-0.5981,-0.5986,-0.5977,-0.5983,-0.5985,-0.5987,-0.599,-0.594,-0.5987,-0.5986,-0.5986,-0.5986,-0.5986,0,-0.603,-0.6025,-0.603,-0.6029,-0.6033,-0.6018,-0.6017,-0.6021,-0.6028,-0.6025,-0.6028,-0.6034,-0.6038,-0.6029,-0.6032,-0.6038,-0.6032,-0.604,-0.6039,-0.6039,-0.5998,-0.5994,-0.6044,-0.6044,-0.6044,-0.6044,-0.6044,-0.6044,-0.6058,-0.6072,-0.6065,-0.6077,-0.6072,-0.6079,-0.6079,-0.6079,-0.6077,-0.6084,-0.6087,-0.6081,-0.6076,-0.6078,-0.6081,-0.6078,-0.608,-0.609,-0.6085,-0.6047,-0.6042,-0.6036,-0.6033,-0.609,-0.609,-0.6126,-0.6126,-0.6126]},{"header":{"parameterUnit":"m.s-1","parameterCategory":1,"la1":30.2991,"la2":30.254,"lo1":-89.0895,"lo2":-89.0444,"dy":0.0017,"dx":0.0017,"nx":28,"ny":28,"refTime":"2024-05-11T09:00:00:Z","depth":0,"parameterNumber":3,"parameterNumberName":"V-component_of_WINDS"},"data":[0,0,0,0,0,0,0,0,0,0,0,0,0,0,0,0,0,0,0,0,0,0,0,0,0,0,0,0,0,0,0,0,0,0,0,0,0,0,0,0,0,0,0,0,0,0,0,0,0,0,0,0,0,0,0,0,0,0,-6.6194,-6.6194,0,-6.6202,-6.6202,-6.6202,-6.6023,-6.6019,-6.6014,-6.6009,-6.6017,-6.6021,-6.6026,0,0,0,0,0,0,0,0,0,0,0,0,0,-6.6024,-6.6028,-6.6194,-6.6194,-6.6194,-6.6202,-6.6202,-6.6202,-6.6024,-6.6018,-6.6013,-6.6007,-6.6015,-6.602,-6.6026,0,0,0,0,0,0,0,0,0,0,0,0,0,-6.6072,-6.6029,-6.6194,-6.6106,-6.6099,-6.6202,-6.6202,-6.6202,-6.6026,-6.6018,-6.6011,-6.6004,-6.6013,-6.602,-6.6027,-6.6213,0,0,-6.6048,-6.6051,0,0,0,0,0,0,0,0,-6.6069,-6.6078,-6.6119,-6.6113,-6.6104,-6.6104,-6.6144,-6.6206,-6.6027,-6.6053,-6.6009,-6.6001,-6.6051,-6.6055,-6.6072,-6.6214,-6.6214,-6.6049,-6.6053,-6.6056,-6.6058,0,0,0,0,0,0,0,-6.6066,-6.6077,-6.6197,-6.612,-6.6111,-6.6066,-6.6065,-6.6155,-6.6092,-6.605,-6.6038,-6.6041,-6.6046,-6.6066,-6.6071,-6.6214,-6.6049,-6.6055,-6.6059,-6.6062,-6.651,-6.6517,0,0,0,0,0,0,-6.6075,-6.6075,-6.6196,-6.6197,-6.6069,-6.6075,-6.6074,-6.6111,-6.6091,-6.6081,-6.6047,-6.6033,-6.6057,-6.6063,-6.607,-6.6288,-6.6056,-6.6062,-6.6066,-6.6502,-6.6512,-6.652,0,0,0,0,0,0,-6.6072,-6.6087,-6.6196,-6.6133,-6.6143,-6.6086,-6.6129,-6.6115,-6.6135,-6.6088,-6.6076,-6.6079,-6.6052,-6.6061,-6.6179,-6.6286,-6.6066,-6.6072,-6.6493,-6.6505,-6.6516,-6.6725,0,0,0,0,0,0,-6.6068,-6.6087,-6.6158,-6.6136,-6.6147,-6.6306,-6.6136,-6.6121,-6.6148,-6.6129,-6.6115,-6.6106,-6.6047,-6.617,-6.6186,-6.6292,-6.6077,-6.6483,-6.6498,-6.6512,-6.6709,-6.6743,-6.6772,0,0,0,0,0,-6.6062,-6.6216,-6.6162,-6.6178,-6.6234,-6.6313,-6.6319,-6.6248,-6.6157,-6.6227,-6.6197,-6.6106,-6.6272,-6.6184,-6.6201,-6.631,-6.6476,-6.6494,-6.6511,-6.6695,-6.6736,-6.6771,0,0,0,0,0,0,-6.6252,-6.6212,-6.6152,-6.6303,-6.6313,-6.6282,-6.6369,-6.6294,-6.633,-6.6311,-6.6221,-6.6219,-6.6353,-6.6342,-6.6245,-6.6489,-6.6358,-6.6379,-6.6492,-6.6531,-6.6562,-6.6562,-6.6083,0,0,0,0,0,-6.6312,-6.6379,-6.634,-6.6477,-6.6485,-6.6427,-6.6458,-6.6403,-6.6409,-6.6412,-6.6391,-6.64,-6.6454,-6.6491,-6.6538,-6.6706,-6.6701,-6.6789,-6.6821,-6.6847,-6.6867,-6.6956,-6.6995,-6.6577,-6.6577,-6.6577,0,0,-6.6435,-6.6421,-6.6469,-6.6515,-6.6516,-6.6588,-6.6431,-6.6513,-6.6566,-6.6424,-6.6536,-6.6521,-6.6525,-6.667,-6.6732,-6.6665,-6.6981,-6.6869,-6.689,-6.6896,-6.6978,-6.7018,-6.7053,-6.6589,-6.6587,-6.6585,0,0,-6.6697,-6.6693,-6.6808,-6.6812,-6.6816,-6.6776,-6.6804,-6.6785,-6.677,-6.6881,-6.6776,-6.6837,-6.6931,-6.6939,-6.6955,-6.7222,-6.714,-6.7239,-6.7404,-6.7492,-6.7525,-6.7554,-6.765,-6.7685,-6.7259,-6.726,-6.726,0,-6.685,-6.6954,-6.6876,-6.6966,-6.6989,-6.6865,-6.698,-6.6988,-6.7007,-6.7026,-6.6951,-6.7067,-6.7061,-6.7206,-6.7272,-6.7289,-6.7318,-6.7241,-6.7527,-6.7555,-6.758,-6.7671,-6.7707,-6.7272,-6.727,-6.7269,-6.7268,0,-6.7143,-6.7217,-6.7309,-6.7332,-6.7365,-6.7467,-6.7404,-6.7447,-6.7389,-6.7358,-6.7472,-6.7461,-6.7504,-6.7533,-6.7477,-6.7671,-6.763,-6.7542,-6.7408,-6.7634,-6.7718,-6.7752,-6.7289,-6.7285,-6.7281,-6.7278,0,0,-6.7525,-6.7503,-6.7539,-6.7548,-6.7543,-6.7599,-6.7695,-6.7738,-6.7777,-6.7794,-6.7873,-6.7956,-6.7876,-6.7894,-6.7838,-6.7915,-6.8128,-6.7817,-6.7816,-6.7877,-6.8342,-6.8409,-6.8451,-6.8073,-6.8079,-6.8084,-6.8342,0,-6.778,-6.7945,-6.7878,-6.8048,-6.8116,-6.7999,-6.8083,-6.809,-6.8063,-6.8116,-6.8085,-6.8147,-6.8034,-6.8045,-6.8116,-6.8087,-6.822,-6.8067,-6.8146,-6.815,-6.815,-6.8494,-6.8565,-6.8809,-6.8374,-6.838,-6.8384,0,-6.81,-6.8132,-6.8311,-6.8295,-6.832,-6.8398,-6.8431,-6.8484,-6.8488,-6.8463,-6.8486,-6.8412,-6.8505,-6.8372,-6.85,-6.8397,-6.8425,-6.8416,-6.8424,-6.8429,-6.8282,-6.8511,-6.8885,-6.8923,-6.8434,-6.843,-6.8426,0,-6.8363,-6.845,-6.8568,-6.8579,-6.8563,-6.8621,-6.8617,-6.8614,-6.8644,-6.8674,-6.8692,-6.8732,-6.8755,-6.8787,-6.8727,-6.8635,-6.8864,-6.8725,-6.8846,-6.8848,-6.8901,-6.8899,-6.9287,-6.8917,-6.8917,-6.8916,-6.8915,0,-6.8656,-6.877,-6.8686,-6.8759,-6.8883,-6.8804,-6.8929,-6.8911,-6.8911,-6.8978,-6.8878,-6.8944,-6.8859,-6.8916,-6.8869,-6.8983,-6.8993,-6.8976,-6.8962,-6.8986,-6.8988,-6.9004,-6.8986,-6.8926,-6.8924,-6.8922,-6.892,0,-6.8971,-6.8919,-6.904,-6.9016,-6.9012,-6.9105,-6.9084,-6.915,-6.9116,-6.9203,-6.9218,-6.9165,-6.9228,-6.917,-6.9228,-6.9197,-6.935,-6.931,-6.9349,-6.9338,-6.9464,-6.9454,-6.9877,-6.9929,-6.9525,-6.9529,-6.9532,0,-6.9163,-6.9248,-6.9233,-6.9271,-6.9274,-6.9336,-6.9367,-6.9292,-6.9328,-6.934,-6.9406,-6.9459,-6.9498,-6.9603,-6.957,-6.9614,-6.9577,-6.9722,-6.9583,-6.9604,-6.9581,-6.9577,-6.9586,-6.9751,-6.9756,-6.976,-6.9763,0,-6.9508,-6.9478,-6.9527,-6.9567,-6.9607,-6.9635,-6.9654,-6.9691,-6.9614,-6.966,-6.9722,-6.9753,-6.9813,-6.9868,-6.9903,-6.9898,-6.9819,-6.9807,-6.9837,-6.9863,-6.9883,-6.9875,-6.9427,-6.9798,-6.9794,-6.9792,-6.979,-6.9788,-6.9768,-6.9838,-6.9839,-6.9897,-6.9904,-6.9925,-6.9987,-6.9961,-7.0012,-7.0056,-7.0008,-7.0086,-7.0088,-7.0126,-7.0131,-7.019,-7.0129,-7.0173,-7.0184,-7.0197,-7.0216,-6.9872,-7.0195,-7.0194,-7.0193,-7.0192,-7.0192,0,-7.0109,-7.0104,-7.0158,-7.019,-7.0235,-7.0156,-7.0174,-7.0218,-7.0287,-7.0296,-7.0337,-7.041,-7.0463,-7.0434,-7.048,-7.0533,-7.0498,-7.0547,-7.0543,-7.0544,-7.0267,-7.0237,-7.0575,-7.0575,-7.0575,-7.0575,-7.0575,-7.0575,-7.0293,-7.0409,-7.0379,-7.0498,-7.0491,-7.0567,-7.0584,-7.0603,-7.061,-7.0696,-7.074,-7.0721,-7.0715,-7.076,-7.0805,-7.0795,-7.0817,-7.0881,-7.0858,-7.0601,-7.0563,-7.0527,-7.0498,-7.0886,-7.0886,-7.1129,-7.1132,-7.1134]}]]